Weather History for KRXE - December, 2012

Change the Weather History Date:

Monday, December 3, 2012

  Actual Average Record
Temperature  
Mean Temperature 35 °F 23 °F  
Max Temperature 39 °F 31 °F 52 °F (1998)
Min Temperature 31 °F 15 °F -6 °F (2009)
Degree Days  
Heating Degree Days 30 42  
Month to date heating degree days 74 125  
Since 1 July heating degree days 1761 2137  
Cooling Degree Days 0 0  
Month to date cooling degree days 0 0  
Year to date cooling degree days 419 208  
Moisture  
Dew Point 26 °F    
Average Humidity 76    
Maximum Humidity 92    
Minimum Humidity 59    
Precipitation  
Precipitation 0.00 in 0.02 in 0.90 in (1992)
Month to date precipitation 0.41 0.08  
Year to date precipitation 9.46 12.11  
Sea Level Pressure  
Sea Level Pressure 30.18 in    
Wind  
Wind Speed 10 mph (SSW)    
Max Wind Speed 20 mph    
Max Gust Speed 26 mph    
Visibility 10 miles    
Events      
T = Trace of Precipitation, MM = Missing Value Source: NWS Daily Summary

Daily Weather History Graph

Daily Weather History Graph

Search for Another Location

Airport or City:

Trip Planner

Search our weather history database for the weather conditions in past years. The results will help you decide how hot, cold, wet, or windy it might be!

Date:

Astronomy

Dec. 03, 2012 Rise Set
Actual Time 7:44 AM MST 4:50 PM MST
Civil Twilight 7:11 AM MST 5:22 PM MST
Nautical Twilight 6:35 AM MST 5:58 PM MST
Astronomical Twilight 6:00 AM MST 6:33 PM MST
Moon 9:46 PM MST (12/3) 11:04 AM MST (12/3)
Length of Visible Light 10h 11m
Length of Day
9h 06m
Waning Gibbous, 77% of the Moon is Illuminated
Dec 3
Waning Gibbous
Dec 6
Last Quarter
Dec 13
New
Dec 19
First Quarter
Dec 28
Full

Hourly Weather History & Observations

Time (MST) Temp. Windchill Dew Point Humidity Pressure Visibility Wind Dir Wind Speed Gust Speed Precip Events Conditions
12:53 AM 32.0 °F 24.8 °F 28.9 °F 88% 30.00 in 10.0 mi South 8.1 mph - N/A   Clear
1:36 AM 30.2 °F 21.9 °F 28.4 °F 93% 29.99 in 10.0 mi South 9.2 mph - N/A   Mostly Cloudy
1:53 AM 32.0 °F 22.5 °F 28.9 °F 88% 30.03 in 10.0 mi South 12.7 mph - N/A   Mostly Cloudy
2:00 AM 32.0 °F 23.6 °F 28.4 °F 87% 30.01 in 10.0 mi South 10.4 mph - N/A   Scattered Clouds
2:15 AM 32.0 °F 22.5 °F 28.4 °F 87% 30.03 in 10.0 mi South 12.7 mph 18.4 mph N/A   Mostly Cloudy
2:53 AM 30.9 °F 21.2 °F 28.0 °F 89% 30.06 in 10.0 mi South 12.7 mph 20.7 mph N/A   Partly Cloudy
3:53 AM 30.9 °F 20.2 °F 27.0 °F 85% 30.08 in 10.0 mi South 15.0 mph 20.7 mph N/A   Scattered Clouds
4:53 AM 30.9 °F 22.2 °F 27.0 °F 85% 30.10 in 10.0 mi SSW 10.4 mph 18.4 mph N/A   Clear
5:53 AM 30.9 °F 22.8 °F 26.1 °F 82% 30.12 in 10.0 mi SSW 9.2 mph - N/A   Clear
6:53 AM 30.9 °F 21.7 °F 25.0 °F 79% 30.16 in 10.0 mi South 11.5 mph 18.4 mph N/A   Clear
7:53 AM 32.0 °F 23.0 °F 25.0 °F 75% 30.17 in 10.0 mi SSW 11.5 mph - N/A   Clear
8:53 AM 30.9 °F 21.7 °F 26.1 °F 82% 30.20 in 10.0 mi SW 11.5 mph - N/A   Clear
9:53 AM 32.0 °F 23.6 °F 26.1 °F 79% 30.22 in 10.0 mi SW 10.4 mph - N/A   Clear
10:53 AM 32.0 °F 26.4 °F 27.0 °F 82% 30.26 in 10.0 mi SW 5.8 mph - N/A   Partly Cloudy
12:53 PM 37.9 °F 30.0 °F 27.0 °F 65% 30.22 in 10.0 mi SW 12.7 mph - N/A   Partly Cloudy
1:53 PM 37.9 °F 29.2 °F 26.1 °F 62% 30.24 in 10.0 mi SW 15.0 mph - N/A   Mostly Cloudy
2:53 PM 37.9 °F 30.0 °F 25.0 °F 60% 30.22 in 10.0 mi SSW 12.7 mph 20.7 mph N/A   Overcast
3:53 PM 37.9 °F 28.9 °F 25.0 °F 60% 30.25 in 10.0 mi SSW 16.1 mph 24.2 mph N/A   Overcast
4:53 PM 36.0 °F 28.5 °F 24.1 °F 62% 30.27 in 10.0 mi SSW 10.4 mph - N/A   Scattered Clouds
5:53 PM 35.1 °F 28.6 °F 24.1 °F 64% 30.29 in 10.0 mi SSW 8.1 mph - N/A   Overcast
6:53 PM 33.1 °F 28.7 °F 25.0 °F 72% 30.31 in 10.0 mi South 4.6 mph - N/A   Clear
7:53 PM 34.0 °F 28.8 °F 24.1 °F 67% 30.31 in 10.0 mi South 5.8 mph - N/A   Clear
8:53 PM 33.1 °F 27.7 °F 25.0 °F 72% 30.33 in 10.0 mi South 5.8 mph - N/A   Clear
9:53 PM 32.0 °F 24.8 °F 24.1 °F 73% 30.34 in 10.0 mi South 8.1 mph - N/A   Clear
11:53 PM 32.0 °F 24.8 °F 24.1 °F 73% 30.33 in 10.0 mi South 8.1 mph - N/A   Clear